Location: Christian Reformed Church
(43.0975°N, 93.8113°W)
Time: 18:18:35
(UTC+00:00)

Meteor 1-25 Rocket - Pass Details

Date: 16 March 2026
Orbit: 836 x 889 km, 81.2° (Epoch: 14 April)

Event Time Altitude Azimuth Distance (km) Brightness Sun altitude
Rises 01:07:53 0° 203° (SSW) 3,375 7.6 -9.2°
Reaches altitude 10° 01:10:21 10° 208° (SSW) 2,448 6.9 -9.7°
Maximum altitude 01:15:44 51° 284° (WNW) 1,052 5.2 -10.6°
Drops below altitude 10° 01:21:14 10° 1° (N) 2,491 6.8 -11.6°
Sets 01:23:45 0° 6° (N) 3,439 7.4 -12.1°
